Date String (YYYY-MM-DD hh:mm:ss) UTC,Instrument flags,absolute air pressure of the measurement (hPa),sample flow rate (lpm),inlet stack bypass flow (lpm),air temperature of the measurement (°C),ambient temperature measured by the external sensor (°C),aerosol sample conditioner tube jacket temperature (°C),OPC LED temperature (°C),internal box temperature (°C),relative humidity of the measurement (%),span deviation,mass concentration of particles derived from Lorenz-Mie calculation of OPC scattering (μg/m³),mass concentration of particles derived from Lorenz-Mie calculation of OPC scattering (μg/m³),mass concentration of particles derived from Lorenz-Mie calculation of OPC scattering (μg/m³)
DateTimeUTC,F1_M11,P_M11,Q1_M11,Q2_M11,T1_M11,T2_M11,T3_M11,T4_M11,T5_M11,U1_M11,ZSPAN_M11,X0_M11,X2_M11,X1_M11
2023-12-29 20:00:00,SystemResetWarning,0832.9,5.01,000.00,023.3,022.7,000.0,031.4,024.7,8.1,0000.0,0002.64,0000.66,0000.32
2023-12-29 20:01:00,SystemResetWarning,0833.1,5.01,000.00,023.3,022.7,000.0,031.4,024.8,8.0,0000.0,0002.74,0000.65,0000.31
2023-12-29 20:02:00,SystemResetWarning,0832.9,5.00,000.00,023.3,022.7,000.0,031.5,024.8,7.9,0000.0,0002.85,0000.61,0000.30
2023-12-29 20:03:00,SystemResetWarning,0833.2,4.98,000.00,023.3,022.8,000.0,031.5,024.8,7.9,0000.0,0003.06,0000.65,0000.30
2023-12-29 20:04:00,SystemResetWarning,0833.0,5.00,000.00,023.3,022.8,000.0,031.5,024.8,7.8,0000.0,0003.15,0000.66,0000.30
2023-12-29 20:05:00,SystemResetWarning,0833.0,5.01,000.00,023.3,022.8,000.0,031.5,024.8,8.0,0000.0,0003.54,0000.64,0000.30
2023-12-29 20:06:00,SystemResetWarning,0833.0,5.01,000.00,023.4,022.8,000.0,031.5,024.8,8.0,0000.0,0003.03,0000.55,0000.30
2023-12-29 20:07:00,SystemResetWarning,0832.9,5.00,000.00,023.4,022.8,000.0,031.5,024.8,7.9,0000.0,0003.03,0000.56,0000.31
2023-12-29 20:08:00,SystemResetWarning,0833.0,5.00,000.00,023.4,022.8,000.0,031.5,024.8,7.9,0000.0,0002.87,0000.57,0000.31
2023-12-29 20:09:00,SystemResetWarning,0832.8,5.00,000.00,023.4,022.9,000.0,031.5,024.9,7.9,0000.0,0002.79,0000.55,0000.32
2023-12-29 20:10:00,SystemResetWarning,0832.8,4.99,000.00,023.4,022.9,000.0,031.6,024.9,7.9,0000.0,0002.85,0000.55,0000.33
2023-12-29 20:11:00,SystemResetWarning,0833.0,5.00,000.00,023.4,022.9,000.0,031.6,024.9,7.9,0000.0,0002.44,0000.56,0000.34
2023-12-29 20:12:00,SystemResetWarning,0833.3,5.00,000.00,023.4,022.9,000.0,031.6,024.9,8.1,0000.0,0002.37,0000.61,0000.35
2023-12-29 20:13:00,SystemResetWarning,0833.4,4.99,000.00,023.5,022.9,000.0,031.6,024.9,8.0,0000.0,0002.37,0000.65,0000.37
2023-12-29 20:14:00,SystemResetWarning,0833.4,5.00,000.00,023.5,022.9,000.0,031.6,024.9,7.9,0000.0,0002.18,0000.61,0000.38
2023-12-29 20:15:00,SystemResetWarning,0833.4,5.00,000.00,023.5,022.9,000.0,031.6,024.9,7.9,0000.0,0002.13,0000.64,0000.40
2023-12-29 20:16:00,SystemResetWarning,0833.0,5.01,000.00,023.5,022.9,000.0,031.6,024.9,7.9,0000.0,0001.62,0000.68,0000.41
2023-12-29 20:17:00,SystemResetWarning,0833.3,5.00,000.00,023.5,023.0,000.0,031.7,024.9,7.9,0000.0,0001.66,0000.70,0000.41
2023-12-29 20:18:00,SystemResetWarning,0833.4,5.01,000.00,023.5,023.0,000.0,031.7,024.9,8.1,0000.0,0002.43,0000.72,0000.42
2023-12-29 20:19:00,SystemResetWarning,0833.1,4.99,000.00,023.5,023.0,000.0,031.7,024.9,8.1,0000.0,0003.10,0000.78,0000.44
2023-12-29 20:20:00,SystemResetWarning,0832.8,4.99,000.00,023.5,023.0,000.0,031.7,024.9,8.1,0000.0,0003.19,0000.82,0000.46
2023-12-29 20:21:00,SystemResetWarning,0832.8,4.99,000.00,023.5,023.0,000.0,031.7,025.0,8.2,0000.0,0003.10,0000.83,0000.47
2023-12-29 20:22:00,SystemResetWarning,0832.9,5.01,000.00,023.6,023.0,000.0,031.7,025.0,8.1,0000.0,0003.27,0000.82,0000.47
2023-12-29 20:23:00,SystemResetWarning,0832.8,5.01,000.00,023.6,023.0,000.0,031.7,025.0,8.0,0000.0,0003.91,0000.85,0000.49
2023-12-29 20:24:00,SystemResetWarning,0832.8,4.99,000.00,023.6,023.0,000.0,031.7,025.0,8.0,0000.0,0003.86,0000.86,0000.50
2023-12-29 20:25:00,SystemResetWarning,0832.8,4.99,000.00,023.6,023.0,000.0,031.8,025.0,8.0,0000.0,0003.84,0000.86,0000.51
2023-12-29 20:26:00,SystemResetWarning,0832.8,5.01,000.00,023.6,023.1,000.0,031.8,025.0,8.0,0000.0,0003.81,0000.86,0000.53
2023-12-29 20:27:00,SystemResetWarning,0832.8,5.01,000.00,023.6,023.1,000.0,031.8,025.0,8.0,0000.0,0004.84,0000.90,0000.54
2023-12-29 20:28:00,SystemResetWarning,0832.8,4.99,000.00,023.6,023.1,000.0,031.8,025.0,8.1,0000.0,0006.09,0000.91,0000.55
2023-12-29 20:29:00,SystemResetWarning,0832.8,4.99,000.00,023.7,023.1,000.0,031.8,025.1,8.1,0000.0,0006.04,0000.92,0000.56
2023-12-29 20:30:00,SystemResetWarning,0832.8,5.01,000.00,023.7,023.1,000.0,031.8,025.1,8.0,0000.0,0006.88,0000.91,0000.55
2023-12-29 20:31:00,SystemResetWarning,0832.8,5.01,000.00,023.7,023.1,000.0,031.8,025.1,7.9,0000.0,0007.25,0000.91,0000.56
2023-12-29 20:32:00,SystemResetWarning,0832.8,5.00,000.00,023.7,023.1,000.0,031.8,025.1,7.9,0000.0,0007.33,0000.93,0000.55
2023-12-29 20:33:00,SystemResetWarning,0832.7,5.00,000.00,023.7,023.2,000.0,031.9,025.1,7.9,0000.0,0007.33,0000.93,0000.56
2023-12-29 20:34:00,SystemResetWarning,0832.9,4.99,000.00,023.7,023.2,000.0,031.9,025.1,7.8,0000.0,0006.87,0000.93,0000.57
2023-12-29 20:35:00,SystemResetWarning,0832.7,5.00,000.00,023.7,023.2,000.0,031.9,025.1,7.8,0000.0,0006.54,0000.94,0000.56
2023-12-29 20:36:00,SystemResetWarning,0832.9,5.01,000.00,023.8,023.2,000.0,031.9,025.1,7.8,0000.0,0006.84,0000.96,0000.56
2023-12-29 20:37:00,SystemResetWarning,0832.8,5.01,000.00,023.8,023.2,000.0,031.9,025.1,7.7,0000.0,0006.91,0000.96,0000.54
2023-12-29 20:38:00,SystemResetWarning,0832.7,5.00,000.00,023.8,023.2,000.0,031.9,025.2,7.7,0000.0,0006.40,0000.92,0000.53
2023-12-29 20:39:00,SystemResetWarning,0832.7,4.99,000.00,023.8,023.2,000.0,031.9,025.2,7.7,0000.0,0004.45,0000.85,0000.51
2023-12-29 20:40:00,SystemResetWarning,0832.6,4.99,000.00,023.8,023.2,000.0,032.0,025.2,7.7,0000.0,0004.41,0000.84,0000.51
2023-12-29 20:41:00,SystemResetWarning,0832.7,5.01,000.00,023.8,023.3,000.0,032.0,025.2,7.6,0000.0,0002.50,0000.83,0000.50
2023-12-29 20:42:00,SystemResetWarning,0832.7,5.01,000.00,023.8,023.3,000.0,032.0,025.2,7.7,0000.0,0001.89,0000.79,0000.50
2023-12-29 20:43:00,SystemResetWarning,0832.6,4.99,000.00,023.8,023.3,000.0,032.0,025.2,7.6,0000.0,0001.91,0000.80,0000.50
2023-12-29 20:44:00,SystemResetWarning,0832.7,4.99,000.00,023.8,023.3,000.0,032.0,025.2,7.7,0000.0,0001.90,0000.79,0000.49
2023-12-29 20:45:00,SystemResetWarning,0832.6,4.99,000.00,023.8,023.3,000.0,032.0,025.2,7.8,0000.0,0001.78,0000.77,0000.48
2023-12-29 20:46:00,SystemResetWarning,0832.7,5.00,000.00,023.9,023.3,000.0,032.0,025.2,7.9,0000.0,0001.82,0000.76,0000.47
2023-12-29 20:47:00,SystemResetWarning,0832.6,5.00,000.00,023.9,023.3,000.0,032.0,025.2,7.7,0000.0,0001.69,0000.77,0000.48
2023-12-29 20:48:00,SystemResetWarning,0832.7,5.02,000.00,023.9,023.3,000.0,032.1,025.2,7.6,0000.0,0001.67,0000.77,0000.48
2023-12-29 20:49:00,SystemResetWarning,0832.7,5.01,000.00,023.9,023.3,000.0,032.1,025.2,7.6,0000.0,0001.74,0000.80,0000.48
2023-12-29 20:50:00,SystemResetWarning,0832.6,4.99,000.00,023.9,023.3,000.0,032.1,025.2,7.5,0000.0,0001.89,0000.87,0000.49
2023-12-29 20:51:00,SystemResetWarning,0832.6,4.99,000.00,023.9,023.4,000.0,032.1,025.3,7.5,0000.0,0001.97,0000.90,0000.50
2023-12-29 20:52:00,SystemResetWarning,0832.6,4.99,000.00,023.9,023.4,000.0,032.1,025.3,7.4,0000.0,0002.18,0000.92,0000.50
2023-12-29 20:53:00,SystemResetWarning,0832.6,5.01,000.00,023.9,023.4,000.0,032.1,025.3,7.4,0000.0,0002.66,0000.92,0000.50
2023-12-29 20:54:00,SystemResetWarning,0832.6,5.01,000.00,023.9,023.4,000.0,032.1,025.3,7.4,0000.0,0002.59,0000.88,0000.48
2023-12-29 20:55:00,SystemResetWarning,0832.6,5.00,000.00,024.0,023.4,000.0,032.1,025.3,7.4,0000.0,0002.57,0000.88,0000.48
2023-12-29 20:56:00,SystemResetWarning,0832.6,5.00,000.00,024.0,023.4,000.0,032.1,025.3,7.3,0000.0,0002.54,0000.86,0000.48
2023-12-29 20:57:00,SystemResetWarning,0832.6,4.99,000.00,024.0,023.4,000.0,032.2,025.4,7.5,0000.0,0002.33,0000.80,0000.47
2023-12-29 20:58:00,SystemResetWarning,0832.6,5.00,000.00,024.0,023.4,000.0,032.2,025.4,7.6,0000.0,0002.20,0000.75,0000.45
2023-12-29 20:59:00,SystemResetWarning,0832.6,4.99,000.00,024.0,023.4,000.0,032.2,025.4,7.7,0000.0,0002.15,0000.74,0000.44
